Cloud_Cover
38 8 14 91 74 60 33 23 59 68 6 5 45 62 100 78 78 81 94 70 92 99 100 100 100 100 100 70 97 62 40 36 74 92 33 44 97 100 100 98 77 5 5
76 84 100 100 99 95 100 100 100 12 10 18 5 86 100 100 100 100 100 99 80 95 100 100 100 100 100 67 97 99 92 92 100 98 68 100 94 100 100 99 90 5 5
100 90 100 100 100 100 100 100 86 32 52 48 82 59 93 100 100 57 86 100 100 100 100 100 98 35 98 1 0 7 35 8 78 100 93 100 88 93 85 62 5 5 5
100 100 100 100 100 91 13 58 54 19 81 90 90 98 70 100 100 98 91 86 78 100 100 99 100 100 20 2 1 0 0 0 1 2 2 36 2 10 22 5 1 5 0
100 100 100 100 98 53 99 100 46 92 99 100 100 99 100 100 100 94 19 30 93 99 96 97 100 66 5 5 5 5 2 0 0 0 0 0 0 0 0 0 0 0 0
100 100 100 100 99 66 100 90 96 98 79 28 5 39 100 2 0 1 19 51 62 70 64 53 52 13 5 0 0 0 0 0 0 0 0 0 0 0 0 0 0 0 4
100 100 100 100 98 99 98 75 92 36 24 89 42 49 9 1 0 0 4 6 73 94 100 100 100 100 96 100 100 88 32 33 52 38 54 90 100 91 37 53 62 47 52
100 100 100 100 100 100 98 100 100 100 100 18 15 42 24 4 3 4 0 41 62 73 97 100 100 100 100 100 100 100 100 100 100 100 100 97 99 100 100 100 100 100 100
100 100 100 100 100 100 100 97 44 25 53 66 80 77 47 42 8 19 81 98 90 92 88 100 100 100 100 100 100 100 100 87 65 99 100 100 100 83 60 95 100 100 100
100 12 45 24 5 31 27 8 6 49 67 67 80 55 35 79 26 24 98 100 100 100 100 100 100 48 26 20 22 99 100 88 86 93 98 98 100 85 100 100 100 100 100
56 100 66 39 38 58 40 39 62 92 100 100 48 80 98 98 59 49 100 100 100 100 100 83 45 27 21 22 98 96 62 47 92 99 76 85 99 93 85 93 100 97 100
98 42 63 73 67 65 99 100 78 100 100 100 92 87 89 68 46 50 96 100 96 100 100 99 34 59 94 100 100 100 100 100 100 95 91 98 99 80 100 100 100 100 100
36 38 46 82 97 94 99 43 96 100 100 100 100 100 99 100 82 26 2 25 10 86 96 60 100 100 100 100 100 100 100 100 100 100 100 96 70 100 100 100 100 99 51
46 72 68 58 100 99 72 94 100 100 100 100 100 100 100 100 79 57 72 44 55 79 99 99 100 100 100 100 100 100 100 100 100 100 100 100 100 92 100 100 100 100 99
66 67 92 100 100 100 98 96 92 98 83 100 100 100 100 100 100 100 100 99 100 100 100 100 100 100 100 100 100 100 100 100 100 100 100 100 100 100 100 100 100 100 97
78 91 100 100 100 100 100 43 5 6 5 24 99 94 100 100 100 100 96 100 100 99 100 100 100 100 100 100 100 100 100 100 100 100 100 100 100 100 100 100 100 100 100
100 100 100 100 100 100 85 63 61 5 5 10 46 100 100 100 100 100 100 94 100 99 100 100 100 100 100 100 100 100 100 100 100 100 100 100 100 100 100 100 100 100 100
96 100 100 100 100 90 61 87 100 100 98 72 83 100 100 100 98 100 96 97 80 100 100 100 100 100 100 100 100 100 100 100 100 100 100 100 100 100 100 100 100 100 100
100 100 100 96 98 100 100 100 100 100 100 100 93 100 100 100 98 100 99 100 100 100 100 100 100 100 100 100 100 100 100 100 100 95 100 100 100 100 100 100 100 78 100
100 68 92 80 100 100 100 100 100 100 100 100 100 100 98 100 100 100 100 100 100 100 100 100 100 100 100 100 100 100 100 100 100 100 83 100 100 100 100 100 100 100 90
100 88 100 86 100 100 100 100 100 100 100 100 100 100 100 100 100 100 100 100 100 100 100 100 100 100 100 100 100 100 100 100 100 100 100 100 100 93 100 100 100 100 100
98 99 97 86 100 100 100 100 100 100 100 100 100 100 100 100 100 100 100 100 100 100 100 100 100 100 100 100 100 100 100 100 100 100 100 100 98 100 100 100 100 100 100
100 100 100 100 100 100 100 100 100 100 100 100 100 100 100 100 100 100 100 100 100 100 100 100 100 100 100 100 100 100 100 100 100 100 100 100 100 100 97 100 100 100 100
98 100 100 100 100 100 100 100 100 100 100 100 100 100 100 100 100 100 100 100 100 100 100 100 100 96 100 93 92 100 100 100 100 99 100 100 100 100 98 99 82 100 100
100 94 98 100 100 100 100 100 100 100 100 100 100 100 100 100 99 100 100 100 85 98 85 96 92 64 72 64 85 100 100 100 71 46 93 100 100 100 100 100 100 100 79
98 100 100 97 100 100 92 87 90 83 82 97 84 69 48 43 43 44 23 95 97 79 14 66 68 49 51 51 96 100 100 100 69 5 5 17 97 100 100 100 100 92 88